www.pogodaiklimat.ru

Погода и климат >> Архив погоды >> Молдова >> Кишинев


АРХИВ ПОГОДЫ в Кишиневе

Время (UTC), дата Ветер
(напр.,м/с)
 
Видим.   Явления Облачность Т
(С)
Тd
(С)
f
(%)
Тe
(С)
Тes
(С)
Комфортность P
(гПа)
Po
(гПа)
Тmin
(С)
Tmax
(С)
R
(мм)
R24
(мм)
S
(см)
09 11.10 ЮЗ 3 20 км 1/0
[Ac lent]
+14.9 +3.1 45 +14 +19 тепло 1021.5 1001.2
12 11.10 ЮЗ 4 20 км 6/3 600 м
[Cu hum Ci]
+17.7 +3.6 39 +17 +20 тепло 1020.0 999.9
15 11.10 ЮЗ 3 20 км 6/1 600 м
[Cu hum Ac lent Ci fib]
+15.6 +5.2 50 +15 +15 тепло 1019.6 999.4
18 11.10 ЮЗ 1 20 км 4/0
[Ac trans Ci fib]
+12.4 +5.8 64 +13 +13 по сезону 1019.9 999.5 +18.4
21 11.10 СЗ 3 20 км 4/0
[Ac trans Ci fib]
+12.7 +5.6 62 +11 +11 по сезону 1020.1 999.7
00 12.10 З 2 20 км 3/0
[Ac trans Ci fib]
+11.7 +4.9 63 +11 +11 тепло 1020.1 999.6
03 12.10 ЮЗ 2 20 км 8/0
[Ac lent Ci fib]
+9.3 +5.3 76 +8 +8 по сезону 1020.1 999.5
06 12.10 З 1 50 км 9/0
[Ac trans]
+10.9 +6.1 72 +11 +11 тепло 1020.7 1000.2 +9.0
09 12.10 З 2 20 км 9/1 600 м
[Cu med, cong Ac trans Ci fib]
+16.9 +7.3 53 +17 +20 тепло 1020.6 1000.5
12 12.10 З 5 20 км 6/1 600 м
[Cu med, cong Ac trans Ci fib]
+20.0 +6.4 41 +21 +22 комфорт 1019.4 999.5
15 12.10 З 2 20 км 5/0
[Ac trans Ci fib]
+17.7 +6.9 49 +18 +18 тепло 1019.2 999.2
18 12.10 ЮЗ 2 20 км 9/0
[Ac trans]
+14.4 +7.5 63 +14 +14 тепло 1019.3 999.0 +20.6
21 12.10 З 2 20 км 6/0
[Ac trans]
+13.3 +7.7 69 +13 +13 тепло 1018.9 998.6
00 13.10 З 2 20 км 3/0
[Ac trans]
+13.2 +7.6 69 +13 +13 тепло 1018.3 998.0
03 13.10 штиль 0 20 км 3/0
[Ac trans]
+10.6 +7.1 79 +10 +10 по сезону 1018.2 997.7
06 13.10 штиль 0 20 км 8/4 600 м
[Sc Ac trans Ci fib]
+11.8 +7.5 75 +11 +12 тепло 1018.6 998.2 +9.9
09 13.10 СЗ 4 20 км 10/8 600 м
[Sc Ac trans]
+15.6 +5.5 51 +15 +15 тепло 1018.7 998.5
12 13.10 СЗ 5 20 км 9/6 600 м
[Cb calv Ac trans Ci fib]
+17.1 +4.4 43 +16 +17 тепло 1017.5 997.5
15 13.10 СЗ 2
{12}
10 км слабый дождь 10/10 600 м
[Sc]
+9.7 +6.6 81 +8 +8 прохладно 1018.9 998.3
18 13.10 З 3 20 км {дождь} 3/0
[Ci fib]
+8.3 +6.6 89 +6 +6 прохладно 1019.2 998.5 +17.5 0.9
21 13.10 З 4 20 км 4/0
[Ci fib]
+9.1 +4.5 73 +6 +6 прохладно 1019.6 998.9
00 14.10 СЗ 3 20 км 3/0
[Ci fib]
+10.0 +4.4 68 +8 +8 по сезону 1019.1 998.5
03 14.10 З 3 20 км 8/0
[Ac trans]
+10.1 +4.7 69 +8 +8 по сезону 1020.0 999.4
06 14.10 СЗ 5
{12}
20 км 9/8 600 м
[Sc Ac trans]
+11.0 +5.1 67 +8 +9 по сезону 1020.7 1000.2 +8.1
09 14.10 СЗ 6
{12}
20 км {дождь} 10/10 600 м
[Sc]
+11.0 +4.0 62 +8 +8 прохладно 1021.6 1001.0
12 14.10 С 5 20 км {дождь} 8/8 600 м
[Cu Sc]
+12.6 +3.0 52 +11 +11 прохладно 1021.1 1000.7
15 14.10 СЗ 4 20 км 8/5 600 м
[Sc Ac trans Ci fib]
+12.8 +2.6 50 +11 +11 по сезону 1021.3 1000.9
18 14.10 З 3 20 км 9/9 600 м
[Sc]
+11.9 +3.2 55 +11 +11 по сезону 1022.4 1001.9 +14.0 0.0
21 14.10 З 3 20 км 10/10 600 м
[Sc]
+12.1 +5.0 62 +11 +11 по сезону 1022.7 1002.2
00 15.10 З 4 20 км {дождь} 10/10 600 м
[Sc]
+11.8 +8.1 78 +10 +10 тепло 1022.0 1001.5
03 15.10 СЗ 5 20 км 10/10 600 м
[Sc]
+13.6 +9.6 77 +12 +12 тепло 1021.5 1001.2
06 15.10 СЗ 5 20 км 10/4 600 м
[Sc Ac trans]
+15.0 +10.4 74 +14 +14 тепло 1021.5 1001.3 +11.1 0.0
09 15.10 СЗ 6 20 км 10/4 600 м
[Cu Sc Ac trans]
+17.7 +11.0 65 +17 +18 тепло 1021.2 1001.2
12 15.10 СЗ 6 20 км 10/8 600 м
[Cb calv Ac trans]
+18.6 +11.7 64 +19 +19 тепло 1021.0 1001.0
15 15.10 СЗ 4 20 км 10/0
[Ac lent Ci fib]
+18.1 +11.0 63 +18 +18 тепло 1020.2 1000.2
18 15.10 СЗ 7 20 км 9/0
[Ac trans Ci fib]
+18.1 +11.2 64 +17 +17 тепло 1021.0 1001.0 +19.5
21 15.10 СЗ 6 20 км 10/0
[Ac und]
+17.4 +11.0 66 +17 +17 тепло 1021.9 1001.8
00 16.10 С 4 20 км в посл. час дождь 10/3 600 м
[Sc Ac lent]
+13.3 +10.3 82 +12 +12 тепло 1023.9 1003.5
03 16.10 С 3 20 км 4/0
[Ac trans Ci fib]
+12.1 +8.6 79 +11 +11 тепло 1025.2 1004.7
06 16.10 СЗ 3 20 км 8/0
[Ac trans Ci fib]
+12.1 +8.2 77 +11 +11 тепло 1026.9 1006.3 +11.3 0.0
09 16.10 СЗ 4 50 км 3/3 600 м
[Cu med, cong]
+16.0 +7.5 57 +15 +18 тепло 1027.0 1006.7
12 16.10 СЗ 3 20 км ясно +19.1 +5.2 40 +20 +23 тепло 1025.8 1005.7
15 16.10 СЗ 2 20 км ясно +18.2 +5.1 42 +19 +19 тепло 1025.3 1005.2
18 16.10 З 2 20 км ясно +14.6 +6.2 57 +14 +14 тепло 1024.9 1004.5 +19.8
21 16.10 З 4 20 км ясно +14.6 +7.4 62 +13 +13 тепло 1024.3 1004.0
00 17.10 З 3 20 км ясно +14.1 +8.9 71 +13 +13 тепло 1023.3 1003.0
03 17.10 СЗ 3 20 км ясно +15.1 +8.1 63 +14 +14 тепло 1023.3 1003.0
06 17.10 СЗ 4 20 км ясно +16.5 +9.2 62 +16 +16 тепло 1023.9 1003.7 +13.3
09 17.10 СЗ 4 20 км 3/0
[Ci fib]
+20.0 +10.4 54 +21 +25 комфорт 1023.9 1004.0
12 17.10 СЗ 5 20 км 3/0
[Ci fib]
+22.7 +9.8 44 +24 +27 комфорт 1022.7 1003.0
15 17.10 СЗ 3 20 км 3/0
[Ci fib]
+21.2 +9.1 46 +22 +22 комфорт 1022.5 1002.7
18 17.10 С 3 20 км ясно +18.8 +9.8 56 +20 +20 тепло 1023.2 1003.2 +23.3
21 17.10 ЮЗ 2 20 км 3/0
[Ci fib]
+14.9 +9.7 71 +15 +15 тепло 1023.5 1003.2
00 18.10 СВ 2 20 км 3/0
[Ci fib]
+14.0 +9.8 76 +14 +14 тепло 1023.6 1003.2
03 18.10 штиль 0 10 км 3/0
[Ci fib]
+10.9 +9.7 92 +10 +10 тепло 1023.2 1002.6
06 18.10 штиль 0 4000 м дымка 4/0
[Ci fib]
+11.0 +9.8 92 +10 +11 тепло 1022.9 1002.3 +10.4

 

Местоположение метеостанции Кишинев (Молдова): широта 47.02 долгота 28.98 высота над уровнем моря 173 м.

В архиве по умолчанию представлена погода в Кишиневе за последнюю неделю. Архивные данные за месяц целиком и за предыдущие месяцы, начиная с января 2011 года, Вы можете получить, выбрав интересующий диапазон дат из раскрывающегося списка и нажав кнопку "Ввод!".

Внимание! Время в таблицах - всемирное. Для получения местного времени необходимо прибавить поправку, которая в Кишиневе равна 2 ч.

Смотрите также архив погоды в соседних городах и на ближайших метеорологических станциях:

Погода в Дубоссарах (Молдова) (29 км)
Погода в Тирасполе (Молдова) (49 км)
Погода в Бравичах (Молдова) (57 км)
Погода в Штефан Водэ (Молдова) (67 км)
Погода в Корнестах (Молдова) (76 км)
Погода в Затишье (Одесская область, Украина) (76 км)
Погода в Леове (Молдова) (80 км)
Погода в Заставе (Одесская область, Украина) (81 км)
Погода в Рыбнице (Молдова) (83 км)
Погода в Комрате (Молдова) (84 км)

Пояснения к столбцам:

Ветер - указаны скорость ветра в м/с - средняя за 10 мин, порывы в срок и между сроками (в фигурных скобках) и направление, откуда дует ветер: С - северный, СВ - северо-восточный, В - восточный, ЮВ - юго-восточный, Ю - южный, ЮЗ - юго-западный, З - западный, СЗ - северо-западный.
Видимость - горизонтальная дальность видимости в метрах или километрах. При видимости от 1 до 10 км при отсутствии осадков обычно наблюдается дымка, при ухудшении видимости до 1 км и менее - туман. В сухую погоду видимость может ухудшаться дымом, пылью или мглою.
Явления - указаны атмосферные явления, наблюдавшиеся в срок или в последний час перед сроком; фигурными скобками обозначены явления, наблюдавшиеся между сроками (за 1-3 часа до срока); квадратными скобками обозначены град или гололедные отложения с указанием их диаметра в мм.
Облачность - указаны через наклонную черту общая и нижняя облачность в баллах и высота нижней границы облаков в метрах; квадратными скобками обозначены формы облаков: Ci - перистые, Cs - перисто-слоистые, Cc - перисто-кучевые, Ac - высококучевые, As - высокослоистые, Sc - слоисто-кучевые, Ns - слоисто-дождевые, Cu - кучевые, Cb - кучево-дождевые. Подробнее классификацию облаков см. в Атласе облаков (PDF).
T - Температура воздуха - температура, измеренная на высоте 2 м над землей.
Td - Температура точки росы - температура, при понижении до которой содержащийся в воздухе водяной пар достигнет насыщения.
f - Относительная влажность воздуха - влажноcть воздуха, измеренная на высоте 2 м над землей.
Te - Эффективная температура - температура, которую ощущает одетый по сезону человек в тени. Характеристика душности погоды. При расчете учитывается влияние влажности воздуха и скорости ветра на теплоощущения человека.
Tes - Эффективная температура на солнце - температура, которую ощущает человек, с поправкой на солнечный нагрев. Характеристика знойности погоды. Зависит от высоты солнца над горизонтом, облачности и скорости ветра. Ночью, в пасмурную погоду, а также при ветре 12 м/с и более поправка равна нулю.
P - Атмосферное давление - приведенное к уровню моря атмосферное давление.
Po - Атмосферное давление - измеренное на уровне метеостанции атмосферное давление.
Tmin - Минимальная температура - минимум температуры воздуха на высоте 2 м над землей.
Tmax - Максимальная температура - максимум температуры воздуха на высоте 2 м над землей.
R - Количество осадков - Количество выпавших осадков за период времени, мм. При наведении курсора мыши на число - период времени, за который выпало указанное количество осадков.
R24 - Количество осадков - Количество выпавших осадков за 24 часа, мм.
S - Снежный покров - Высота снежного покрова, см. При наведении курсора мыши на число - состояние снежного покрова и степень покрытия местности в баллах.